Home   Weather   Zoetermeer   Past weeks

Flag for Netherlands Past Weather in Zoetermeer, Netherlands — Yesterday and Last 2 Weeks

32 °F

Ice fog.

Feels Like: 32 °F
Forecast: 43 / 48 °F
Wind: 1 mph from North

Location: Rotterdam Zestienhoven Airport

Current Time: Oct 23, 2016 at 9:59:06 AM

Latest Report: Oct 23, 2016 at 8:55 AM

Visibility: 1 mi

Pressure: 29.92 "Hg

Humidity: 100%

Dew Point: 32 °F

Location of ZoetermeerLocation

Past Weather in Zoetermeer — Graph


Zoetermeer Temperature Yesterday

Maximum temperature yesterday: 50 °F (at 2:25 PM)
Minimum temperature yesterday: 36 °F (at 10:55 PM)
Average temperature yesterday: 44 °F

High & Low Weather Summary for the Past Weeks

High68 °F (Oct 16, 3:25 PM)100% (Oct 9, 12:25 AM)30.33 "Hg (Oct 9, 12:25 AM)
Low30 °F (Oct 23, 4:55 AM)48% (Oct 8, 3:25 PM)29.65 "Hg (Oct 15, 12:55 AM)
Average50 °F85%30.04 "Hg
* Reported Oct 8 8:25 AM — Oct 23 8:25 AM, Zoetermeer, Weather by CustomWeather, © 2016

Note: Actual official high and low records may vary slightly from our data, if they occured in-between our weather recording intervals... More about our weather records


Zoetermeer Weather History for the Previous 24 Hours

Scroll right to see more
Time TempWeatherWind HumidityBarometerVisibility
8:25 AM
Sun, Oct 23
30 °FIce fog.1 mph100%29.92 "Hg2 mi
7:55 AM30 °FIce fog.1 mph100%29.92 "Hg2 mi
7:25 AM30 °FIce fog.2 mph100%29.92 "Hg1 mi
6:55 AM30 °FIce fog.1 mph100%29.92 "Hg0 mi
6:25 AM32 °FIce fog.2 mph100%29.92 "Hg0 mi
5:55 AM32 °FIce fog.1 mph100%29.95 "Hg0 mi
5:25 AM30 °FIce fog.1 mph100%29.95 "Hg0 mi
4:55 AM30 °FIce fog.2 mph100%29.95 "Hg0 mi
4:25 AM32 °FIce fog.No wind93%29.95 "Hg1 mi
3:55 AM32 °FIce fog.1 mph100%29.95 "Hg2 mi
3:25 AM32 °FIce fog.No wind100%29.95 "Hg0 mi
2:55 AM32 °FIce fog.1 mph93%29.98 "Hg0 mi
2:25 AM32 °FIce fog.No wind100%29.98 "Hg1 mi
1:55 AM34 °FFog.1 mph100%29.98 "Hg2 mi
1:25 AM34 °FFog.1 mph100%29.98 "Hg2 mi
12:55 AM34 °FFog.No wind100%29.98 "Hg1 mi
12:25 AM34 °FChilly.1 mph100%29.98 "Hg4 mi
11:55 PM
Sat, Oct 22
36 °FFog.1 mph100%29.98 "Hg1 mi
11:25 PM36 °FFog.2 mph100%29.98 "Hg3 mi
10:55 PM36 °FFog.1 mph100%29.98 "Hg1 mi
10:25 PM37 °FFog.1 mph100%29.98 "Hg1 mi
9:55 PM39 °FFog.3 mph100%29.98 "Hg2 mi
9:25 PM39 °FFog.1 mph100%29.98 "Hg1 mi
8:55 PM39 °FFog.1 mph100%29.98 "Hg1 mi
8:25 PM39 °FFog.1 mph100%29.98 "Hg2 mi
7:55 PM39 °FClear.No wind100%29.98 "Hg3 mi
7:25 PM41 °FQuite cool.1 mph93%29.98 "Hg4 mi
6:55 PM45 °FClear.2 mph87%29.98 "HgN/A
6:25 PM45 °FQuite cool.5 mph81%29.98 "HgN/A
5:55 PM46 °FCool.7 mph82%29.98 "HgN/A
5:25 PM48 °FClear.5 mph76%29.98 "HgN/A
4:55 PM48 °FClear.6 mph76%29.98 "HgN/A
4:25 PM48 °FPartly sunny.7 mph76%29.98 "HgN/A
3:55 PM48 °FOvercast.6 mph82%29.98 "HgN/A
3:25 PM48 °FPartly sunny.8 mph82%29.98 "HgN/A
2:55 PM48 °FScattered clouds.7 mph76%29.98 "HgN/A
2:25 PM50 °FScattered clouds.5 mph76%29.98 "HgN/A
1:55 PM48 °FScattered clouds.8 mph82%29.98 "HgN/A
1:25 PM48 °FOvercast.5 mph87%29.98 "HgN/A
12:55 PM48 °FOvercast.6 mph82%29.98 "HgN/A
12:25 PM46 °FPartly sunny.8 mph87%29.98 "HgN/A
11:55 AM46 °FOvercast.7 mph93%29.98 "HgN/A
11:25 AM46 °FMostly cloudy.7 mph87%29.98 "HgN/A
10:55 AM46 °FLow clouds.8 mph87%29.95 "HgN/A
10:25 AM46 °FLow clouds.9 mph93%29.98 "HgN/A
9:55 AM45 °FMostly cloudy.8 mph100%29.95 "HgN/A
9:25 AM45 °FLow clouds.6 mph100%29.95 "Hg5 mi
Weather by CustomWeather, © 2016

See weather overviewHow to use our weather pages